Flag for U.S.A. Weather past 2 weeks in Leawood, Kansas, U.S.A.

Now
65 °F

Passing clouds.


Feels Like: 65 °F
Forecast: 57 / 65 °F
Wind: 3 mph from Southeast

Location: Johnson County Executive Airport

Current Time: May 29, 2015 at 10:17:59 PM

Latest Report: May 29, 2015 at 9:53 PM


Visibility: 10 mi

Pressure: 29.95 "Hg

Humidity: 100%

Dew point: 65 °F

Location of LeawoodLocation

Historic Weather in Leawood — Graph

°F

Leawood temperature yesterday

Maximum temperature yesterday: 70 °F (at 11:53 AM)
Minimum temperature yesterday: 65 °F (at 6:53 AM)
Average temperature yesterday: 68 °F

Past Weeks' High & Low Weather Summary

 TemperatureHumidityPressure
High81 °F (May 16, 4:53 PM)100% (May 15, 1:53 AM)30.31 "Hg (May 15, 1:53 AM)
Low46 °F (May 19, 5:53 AM)40% (May 21, 6:53 PM)29.68 "Hg (May 17, 2:53 AM)
Average64 °F80%30.00 "Hg
* Reported May 14 8:53 PM — May 29 8:53 PM, Leawood, Weather by CustomWeather, © 2015

Note: Actual official high and low records may vary slightly from our data, if they occured in-between our weather recording intervals... More about our weather records

Advertising

Leawood weather history for previous 24 hours

 ConditionsComfort  
Time TempWeatherWind HumidityBarometerVisibility
8:53 PM
Fri, May 29
66 °FPassing clouds.No wind96%29.93 "Hg10 mi
7:53 PM68 °FSunny.3 mph90%29.92 "Hg10 mi
6:53 PM69 °FScattered clouds.7 mph87%29.93 "Hg10 mi
5:53 PM68 °FScattered clouds.8 mph93%29.93 "Hg10 mi
4:53 PM68 °FScattered clouds.8 mph90%29.93 "Hg10 mi
3:53 PM69 °FLight rain. Mostly cloudy.9 mph93%29.96 "Hg10 mi
2:53 PM68 °FLight rain. Overcast.5 mph93%29.97 "Hg8 mi
1:53 PM68 °FLight rain. Mostly cloudy.5 mph93%29.98 "Hg10 mi
12:53 PM67 °FLight rain. Overcast.7 mph93%29.99 "Hg10 mi
11:53 AM67 °FLight rain. Overcast.7 mph93%29.99 "Hg7 mi
10:53 AM68 °FLight rain. Mostly cloudy.7 mph87%29.97 "Hg10 mi
9:53 AM68 °FScattered clouds.10 mph87%29.97 "Hg10 mi
8:53 AM65 °FLight rain. Overcast.9 mph94%29.97 "Hg8 mi
7:53 AM65 °FLight rain. Overcast.6 mph97%29.96 "Hg10 mi
6:53 AM64 °FRain. Fog.6 mph100%29.97 "Hg5 mi
6:01 AM65 °FHeavy rain. Fog.7 mph100%29.98 "Hg3 mi
5:00 AM64 °FFog.8 mph100%29.93 "Hg1 mi
3:53 AM64 °FFog.5 mph100%29.92 "Hg1 mi
2:53 AM63 °FLow clouds.5 mph100%29.93 "Hg10 mi
1:53 AM63 °FPassing clouds.7 mph100%29.92 "Hg10 mi
12:53 AM64 °FClear.7 mph97%29.95 "Hg10 mi
11:53 PM
Thu, May 28
65 °FClear.7 mph94%29.97 "Hg10 mi
10:53 PM66 °FClear.8 mph93%29.98 "Hg10 mi
Weather by CustomWeather, © 2015

See weather overviewHow to use our weather pages